Weather History for Skagway, AK

Change the Weather History Date:

Friday, October 22, 2010

  Actual Average Record
Temperature  
Mean Temperature 44 °F -  
Max Temperature 46 °F 43 °F 51 °F (1969)
Min Temperature 42 °F 34 °F 24 °F (1991)
Degree Days  
Heating Degree Days 21    
Moisture  
Dew Point 24 °F    
Average Humidity 44    
Maximum Humidity 51    
Minimum Humidity 37    
Precipitation  
Precipitation 0.00 in - - ()
Sea Level Pressure  
Sea Level Pressure 29.76 in    
Wind  
Wind Speed 15 mph (NNE)    
Max Wind Speed 21 mph    
Max Gust Speed 36 mph    
Visibility 10 miles    
Events      
Averages and records for this station are not official NWS values.
T = Trace of Precipitation, MM = Missing Value Source: NWS Daily Summary

Daily Weather History Graph

Daily Weather History Graph

Search for Another Location

Airport:

Trip Planner

Search our weather history database for the weather conditions in past years. The results will help you decide how hot, cold, wet, or windy it might be!

Date:

Astronomy

Oct. 22, 2010 Rise Set
Actual Time 7:56 AM AKDT 5:33 PM AKDT
Civil Twilight 7:14 AM AKDT 6:15 PM AKDT
Nautical Twilight 6:26 AM AKDT 7:03 PM AKDT
Astronomical Twilight 5:39 AM AKDT 7:50 PM AKDT
Moon 4:46 PM AKDT (10/22) 7:59 AM AKDT (10/22)
Length of Visible Light 11h 01m
Length of Day
9h 36m
Full, 100% of the Moon is Illuminated
Oct 22
Full
Oct 22
Full
Oct 30
Last Quarter
Nov 5
New
Nov 13
First Quarter

Hourly Weather History & Observations

Time (AKDT) Temp. Windchill Dew Point Humidity Pressure Visibility Wind Dir Wind Speed Gust Speed Precip Events Conditions
12:53 AM 43.0 °F 35.7 °F 24.1 °F 47% 29.86 in 10.0 mi North 15.0 mph 20.7 mph N/A   Clear
1:53 AM 43.0 °F 35.4 °F 24.1 °F 47% 29.86 in 10.0 mi NNE 16.1 mph 21.9 mph N/A   Clear
2:53 AM 43.0 °F 35.4 °F 25.0 °F 49% 29.84 in 10.0 mi NNE 16.1 mph 25.3 mph N/A   Clear
3:53 AM 42.1 °F 33.1 °F 25.0 °F 51% 29.82 in 10.0 mi NNE 20.7 mph 25.3 mph N/A   Clear
4:53 AM 43.0 °F 34.2 °F 25.0 °F 49% 29.80 in 10.0 mi NNE 20.7 mph 25.3 mph N/A   Clear
5:53 AM 43.0 °F 36.0 °F 25.0 °F 49% 29.80 in 10.0 mi NNE 13.8 mph - N/A   Clear
6:53 AM 43.0 °F 35.1 °F 24.1 °F 47% 29.78 in 10.0 mi NNE 17.3 mph 35.7 mph N/A   Clear
7:53 AM 43.0 °F 34.2 °F 24.1 °F 47% 29.77 in 10.0 mi NNE 20.7 mph 28.8 mph N/A   Clear
8:53 AM 43.0 °F 35.4 °F 24.1 °F 47% 29.78 in 10.0 mi NNE 16.1 mph 29.9 mph N/A   Clear
9:53 AM 43.0 °F 34.2 °F 23.0 °F 45% 29.77 in 10.0 mi NNE 20.7 mph 31.1 mph N/A   Clear
10:53 AM 44.1 °F 36.2 °F 23.0 °F 43% 29.76 in 10.0 mi NNE 18.4 mph 31.1 mph N/A   Clear
11:53 AM 46.0 °F 39.3 °F 23.0 °F 40% 29.75 in 10.0 mi NNE 16.1 mph 28.8 mph N/A   Clear
12:53 PM 46.0 °F 39.3 °F 21.9 °F 39% 29.75 in 10.0 mi NNE 16.1 mph 29.9 mph N/A   Clear
1:53 PM 46.0 °F 39.9 °F 23.0 °F 40% 29.73 in 10.0 mi NNE 13.8 mph 21.9 mph N/A   Clear
2:53 PM 46.9 °F - 23.0 °F 39% 29.71 in 10.0 mi NNE 10.4 mph - N/A   Partly Cloudy
3:53 PM 46.0 °F 40.2 °F 21.9 °F 39% 29.71 in 10.0 mi NNE 12.7 mph 23.0 mph N/A   Mostly Cloudy
4:53 PM 46.0 °F 40.2 °F 21.9 °F 39% 29.70 in 10.0 mi NNE 12.7 mph 21.9 mph N/A   Scattered Clouds
5:53 PM 46.0 °F 40.2 °F 21.0 °F 37% 29.71 in 10.0 mi NNE 12.7 mph 24.2 mph N/A   Overcast
6:53 PM 46.0 °F 41.4 °F 21.9 °F 39% 29.70 in 10.0 mi NNE 9.2 mph - N/A   Overcast
7:53 PM 46.0 °F 41.4 °F 23.0 °F 40% 29.72 in 10.0 mi NNE 9.2 mph 16.1 mph N/A   Overcast
8:53 PM 46.0 °F 41.4 °F 23.0 °F 40% 29.70 in 10.0 mi NNE 9.2 mph 16.1 mph N/A   Overcast
9:53 PM 46.0 °F 41.9 °F 24.1 °F 42% 29.72 in 10.0 mi NNE 8.1 mph - N/A   Overcast
10:53 PM 45.0 °F 39.7 °F 26.1 °F 48% 29.72 in 10.0 mi NNE 10.4 mph 17.3 mph N/A   Overcast
11:53 PM 45.0 °F 39.3 °F 27.0 °F 49% 29.72 in 10.0 mi NNE 11.5 mph - N/A   Overcast